Weather History for Whitefield, NH

Change the Weather History Date:

Monday, June 23, 2014

  Actual Average Record
Temperature  
Mean Temperature 14 °C -  
Max Temperature 27 °C 24 °C 28 °C (1999)
Min Temperature 4 °C 7 °C 1 °C (2005)
Degree Days  
Heating Degree Days 6    
Growing Degree Days 8 (Base 50)    
Moisture  
Dew Point 9 °C    
Average Humidity 67    
Maximum Humidity 93    
Minimum Humidity 39    
Precipitation  
Precipitation 0.00 mm - - ()
Sea Level Pressure  
Sea Level Pressure 1020 hPa    
Wind  
Wind Speed 2 km/h (WSW)    
Max Wind Speed 13 km/h    
Max Gust Speed -    
Visibility 14 kilometers    
Events      
Averages and records for this station are not official NWS values.
T = Trace of Precipitation, MM = Missing Value Source: NWS Daily Summary

Daily Weather History Graph

Daily Weather History Graph

Search for Another Location

Airport:

Trip Planner

Search our weather history database for the weather conditions in past years. The results will help you decide how hot, cold, wet, or windy it might be!

Date:

Astronomy

Jun. 23, 2014 Rise Set
Actual Time 5:02 AM EDT 8:34 PM EDT
Civil Twilight 4:25 AM EDT 9:11 PM EDT
Nautical Twilight 3:37 AM EDT 9:59 PM EDT
Astronomical Twilight 2:34 AM EDT 11:02 PM EDT
Moon 2:33 AM EDT (6/23) 5:07 PM EDT (6/23)
Length of Visible Light 16h 45m
Length of Day
15h 31m
Waning Crescent, 13% of the Moon is Illuminated
Jun 23
Waning Crescent
Jun 27
New
Jul 5
First Quarter
Jul 12
Full
Jul 18
Last Quarter

Hourly Weather History & Observations

Time (EDT) Temp. Dew Point Humidity Pressure Visibility Wind Dir Wind Speed Gust Speed Precip Events Conditions
12:52 AM 8.3 °C 6.7 °C 90% 1018.2 hPa 16.1 km Calm Calm - N/A   Clear
1:52 AM 7.8 °C 5.6 °C 86% 1018.3 hPa 16.1 km Calm Calm - N/A   Clear
2:52 AM 6.7 °C 5.0 °C 89% 1018.9 hPa 16.1 km Calm Calm - N/A   Clear
3:52 AM 6.1 °C 4.4 °C 89% 1019.3 hPa 16.1 km Calm Calm - N/A   Clear
4:34 AM 5.0 °C 3.9 °C 93% 1019.2 hPa 3.2 km Calm Calm - N/A   Partly Cloudy
4:52 AM 5.6 °C 3.9 °C 89% 1019.6 hPa 1.2 km Calm Calm - N/A   Mist
4:59 AM 5.0 °C 3.9 °C 93% 1019.5 hPa 3.2 km Calm Calm - N/A   Scattered Clouds
5:06 AM 4.4 °C 3.3 °C 93% 1019.5 hPa 16.1 km Calm Calm - N/A   Partly Cloudy
5:52 AM 5.6 °C 4.4 °C 92% 1020.1 hPa 16.1 km Calm Calm - N/A   Partly Cloudy
6:52 AM 10.0 °C 8.3 °C 89% 1020.4 hPa 16.1 km Calm Calm - N/A   Clear
7:52 AM 13.9 °C 10.0 °C 77% 1020.7 hPa 16.1 km Calm Calm - N/A   Clear
8:52 AM 17.2 °C 11.1 °C 67% 1020.8 hPa 16.1 km Calm Calm - N/A   Clear
9:52 AM 21.1 °C 12.2 °C 57% 1020.4 hPa 16.1 km Calm Calm - N/A   Clear
10:52 AM 23.3 °C 10.0 °C 43% 1020.3 hPa 16.1 km Variable 5.6 km/h / 1.5 m/s - N/A   Clear
11:52 AM 24.4 °C 10.0 °C 40% 1020.1 hPa 16.1 km SSW 9.3 km/h / 2.6 m/s - N/A   Clear
12:52 PM 24.4 °C 10.6 °C 42% 1019.4 hPa 16.1 km NW 11.1 km/h / 3.1 m/s - N/A   Partly Cloudy
1:52 PM 25.6 °C 10.6 °C 39% 1018.9 hPa 16.1 km Variable 5.6 km/h / 1.5 m/s - N/A   Partly Cloudy
2:52 PM 24.4 °C 10.6 °C 42% 1019.2 hPa 16.1 km WSW 7.4 km/h / 2.1 m/s - N/A   Overcast
4:52 PM 25.0 °C 11.1 °C 42% 1019.0 hPa 16.1 km SW 13.0 km/h / 3.6 m/s - N/A   Partly Cloudy
5:52 PM 25.6 °C 11.1 °C 40% 1018.9 hPa 16.1 km SW 11.1 km/h / 3.1 m/s - N/A   Mostly Cloudy
6:52 PM 24.4 °C 11.7 °C 45% 1018.8 hPa 16.1 km Calm Calm - N/A   Mostly Cloudy
7:52 PM 22.2 °C 12.2 °C 53% 1018.6 hPa 16.1 km Calm Calm - N/A   Clear
8:52 PM 18.3 °C 13.3 °C 73% 1018.9 hPa 14.5 km Calm Calm - N/A   Clear
9:52 PM 19.4 °C 11.7 °C 61% 1019.0 hPa 14.5 km Variable 7.4 km/h / 2.1 m/s - N/A   Clear
10:52 PM 20.0 °C 11.1 °C 56% 1018.9 hPa 12.9 km Variable 7.4 km/h / 2.1 m/s - N/A   Clear